Wind_Speed
4 4 4 4 4 5 4 4 3 3 4 4 5 4 4 4 3 3 4 4 4 5 5 5 4 4 4 3 3 3 4 3 3 3 2 3 4 5 5 5 4 4 4 5 5 5 5 5 5
4 4 4 5 5 5 5 4 4 4 4 4 5 4 3 3 3 3 4 4 4 5 4 4 3 4 5 5 5 4 4 4 4 4 4 4 4 5 6 6 5 5 5 5 6 6 6 6 6
4 4 5 5 5 5 5 5 5 4 4 5 4 4 4 3 3 4 4 4 4 4 3 3 4 5 6 6 7 6 5 5 5 5 5 5 5 6 6 6 6 6 6 6 6 7 7 7 7
5 5 5 5 4 4 4 5 5 5 5 5 5 5 5 5 5 5 5 5 5 4 4 4 4 5 6 7 7 7 6 6 6 6 6 6 6 7 7 7 7 7 7 7 7 7 8 8 8
6 5 4 5 5 4 5 5 5 5 5 5 5 5 5 6 6 6 6 6 5 5 5 5 5 6 6 6 6 5 5 5 6 5 6 6 6 7 7 7 7 8 8 8 8 8 9 9 9
6 5 5 5 5 5 5 5 5 5 5 5 5 5 5 6 6 6 6 6 6 6 6 6 6 6 6 5 4 4 5 5 6 6 6 6 7 7 8 8 8 8 9 9 8 9 9 10 10
6 6 6 6 5 6 6 6 6 6 6 5 5 5 5 5 6 6 6 6 7 6 6 6 6 6 6 4 4 4 5 6 6 7 7 7 8 8 8 8 9 9 9 9 10 10 10 10 10
6 6 6 7 6 6 6 6 6 6 6 6 6 5 5 5 6 6 6 6 7 7 7 6 6 7 6 5 4 5 6 6 7 8 9 9 9 9 8 9 9 8 9 10 11 11 12 11 11
6 7 7 7 7 7 6 6 6 7 7 6 6 6 6 6 6 6 6 6 7 7 7 7 6 6 7 6 6 6 7 7 8 8 9 10 10 10 9 9 9 9 10 10 10 11 11 11 11
7 7 8 8 8 8 7 7 7 7 7 7 7 7 7 7 7 6 7 7 7 7 7 7 7 7 7 7 7 8 8 8 8 9 10 10 10 11 11 10 10 11 11 10 9 9 10 10 10
8 8 8 8 9 8 8 7 8 7 8 7 7 7 7 7 7 7 7 7 8 8 8 8 7 7 7 8 8 8 9 9 10 10 10 10 10 11 11 11 11 11 11 11 10 10 10 10 10
9 9 9 9 9 9 8 8 8 8 8 8 8 8 8 8 8 8 8 8 8 8 8 8 8 8 8 8 9 9 9 9 9 10 10 10 11 11 11 10 11 11 11 11 12 12 12 12 12
10 9 9 9 9 9 9 9 8 9 9 9 9 9 9 8 8 8 9 9 9 9 8 8 9 9 9 8 9 10 10 9 9 10 10 11 11 12 12 12 11 11 11 11 11 12 13 13 13
10 10 9 9 9 9 9 9 9 9 9 9 9 9 9 9 9 9 9 9 9 9 9 9 9 10 10 10 10 10 10 10 10 11 11 11 11 12 12 12 12 12 13 13 13 13 13 13 14
11 10 10 10 10 10 10 10 10 9 9 9 9 9 10 9 9 9 9 9 9 9 9 9 10 10 10 10 10 10 10 10 10 11 11 12 12 12 12 12 12 12 13 13 14 14 15 15 15
11 11 11 11 11 11 11 10 10 10 10 10 10 10 10 10 10 10 9 9 9 10 10 10 10 11 11 11 10 10 10 11 11 12 12 12 12 12 13 13 13 13 13 14 14 14 14 15 15
11 11 11 11 11 11 12 12 11 11 10 11 11 10 10 10 10 10 10 10 9 10 10 10 11 11 11 11 11 11 11 11 12 12 12 12 12 13 13 13 13 14 14 14 14 14 15 15 15
11 11 11 11 11 12 12 12 12 13 12 11 11 11 11 11 10 11 11 11 10 10 10 10 11 12 11 12 12 12 12 12 12 12 13 12 13 13 14 14 14 15 15 15 15 15 15 16 16
13 12 12 12 12 13 13 13 14 13 13 13 12 12 12 12 12 11 11 11 11 11 11 11 12 12 12 13 12 13 13 13 13 13 13 13 13 13 14 14 14 15 15 15 16 16 16 15 16
14 14 13 14 14 14 14 14 14 14 14 14 13 13 13 12 12 12 12 12 12 12 12 13 13 13 13 13 14 14 14 13 13 13 13 13 13 13 14 15 15 15 16 16 15 16 16 16 16
15 15 15 15 16 15 14 14 15 15 15 14 14 14 14 13 13 13 13 13 13 13 13 13 14 14 14 14 14 14 14 14 14 14 14 14 14 14 15 15 16 16 16 16 16 16 17 17 17
15 14 14 15 16 16 15 15 15 15 15 15 14 14 14 15 15 14 14 14 14 14 14 14 14 14 14 14 15 15 15 15 15 15 15 14 14 15 15 16 16 17 17 17 17 17 18 18 18
16 16 15 14 16 16 15 16 15 15 16 16 15 15 15 16 16 15 15 14 14 15 15 15 15 14 15 15 15 16 16 16 16 16 15 15 15 16 16 16 17 17 17 18 18 18 18 19 19
15 15 15 15 16 17 16 17 16 16 17 17 17 16 16 17 16 16 16 15 15 16 16 16 15 15 15 15 16 16 16 16 17 17 16 16 16 16 17 17 18 18 17 18 18 19 19 19 19
15 14 15 16 16 17 16 17 17 17 18 18 17 17 17 17 17 17 17 17 17 16 17 17 16 16 16 16 16 16 17 17 17 17 17 17 17 18 18 18 18 18 18 18 19 19 20 20 20
14 14 15 15 16 16 16 17 16 16 17 17 17 17 18 18 18 18 18 18 18 18 18 18 17 17 17 17 17 17 18 18 18 18 18 18 18 18 18 18 18 18 19 19 20 20 20 20 20
14 15 15 16 16 16 16 16 16 16 17 17 18 18 18 19 19 19 19 20 19 19 19 19 19 18 18 18 18 19 19 19 19 18 19 19 19 18 18 18 19 19 20 20 21 21 21 21 20
15 14 15 16 15 16 16 17 17 15 17 19 19 18 19 19 20 20 20 20 20 20 20 20 20 19 19 19 19 19 19 19 20 20 19 19 19 19 19 19 20 20 21 22 22 22 21 21 21
13 14 16 17 17 16 16 18 17 18 19 19 20 20 20 20 20 20 20 21 21 21 21 21 20 20 20 20 20 20 20 21 21 21 20 20 20 20 20 20 21 21 22 23 23 23 22 22 22
13 14 15 17 17 17 17 19 18 20 21 20 20 21 22 21 21 21 21 21 21 21 21 21 21 21 21 21 22 21 21 21 21 21 21 21 21 21 21 22 22 23 23 24 24 23 23 23 23
Wind_Direction
205 210 220 222 223 227 236 240 244 234 230 232 233 238 243 249 266 277 281 285 298 296 279 254 246 251 257 262 265 256 249 237 235 240 249 249 250 248 248 244 246 253 260 265 265 263 265 268 271
216 225 228 230 231 234 235 233 240 233 228 227 229 232 240 257 269 278 284 296 304 309 291 252 248 261 267 271 267 262 254 248 247 252 261 262 259 257 258 256 257 258 264 275 271 266 268 266 276
227 230 230 233 232 235 240 238 239 229 226 228 234 239 245 261 272 280 286 297 298 303 294 270 271 274 282 279 271 260 254 253 253 257 260 263 263 261 262 265 265 266 270 277 278 273 275 272 272
234 233 227 223 224 233 241 239 236 222 226 232 237 244 250 258 267 275 282 285 287 288 288 280 278 282 290 287 272 259 253 255 257 258 259 267 269 267 269 272 269 272 276 280 284 284 282 277 273
227 227 224 225 225 228 242 240 230 224 231 242 243 246 250 260 266 271 278 278 280 281 280 280 285 289 296 298 282 259 248 256 257 263 272 273 276 273 274 275 275 276 278 280 284 284 282 278 278
229 228 224 226 231 234 241 246 248 237 240 249 251 253 254 260 267 268 274 276 279 280 278 280 289 294 300 303 286 256 251 258 260 264 272 277 280 281 275 278 280 277 278 277 282 285 286 288 285
230 229 226 228 232 238 244 246 245 243 240 249 253 256 258 264 270 272 273 275 278 281 279 281 286 292 296 296 281 263 263 264 268 270 270 275 282 289 283 281 282 280 280 280 280 283 285 286 286
231 230 227 232 232 238 244 245 244 243 245 249 254 258 262 269 270 275 276 278 278 278 280 282 287 286 286 284 277 270 269 270 273 278 278 279 280 284 286 281 280 276 274 277 279 281 282 283 283
227 232 233 234 233 238 239 246 251 248 249 252 260 266 267 270 271 275 280 283 280 278 278 280 284 283 279 279 277 276 276 274 276 281 284 284 285 285 287 286 281 278 278 277 278 278 280 282 283
231 234 240 239 236 236 239 250 256 255 254 256 265 268 268 269 271 274 280 283 279 278 279 278 278 280 280 278 277 280 282 283 284 284 287 284 285 288 289 287 285 284 283 282 280 278 278 281 284
235 238 241 241 240 238 242 250 257 258 260 261 265 268 269 270 273 276 279 283 280 276 278 281 280 283 284 282 282 282 282 284 286 286 286 286 286 288 291 289 288 287 285 284 285 286 284 286 285
241 242 240 241 245 246 242 250 257 260 265 265 266 269 271 273 276 278 276 278 278 275 275 279 279 281 285 286 285 285 287 286 287 287 289 289 286 286 289 289 287 287 286 286 287 289 289 288 286
238 238 238 240 246 249 247 250 259 263 268 266 266 270 271 272 272 273 276 279 277 276 276 278 278 280 283 284 284 287 286 283 283 285 288 289 290 290 288 287 290 287 287 286 287 286 288 288 287
240 241 243 242 244 247 248 251 256 262 266 266 268 270 270 270 273 275 279 281 281 276 274 275 275 278 281 283 286 284 282 282 285 286 287 290 292 292 292 292 292 292 291 288 288 287 285 285 286
241 245 246 245 246 247 248 249 253 259 264 267 270 270 269 271 275 278 280 281 281 278 276 274 275 277 279 281 283 284 284 284 284 286 290 292 291 292 294 295 296 295 294 293 293 292 290 288 286
245 249 250 249 250 250 250 252 256 260 265 269 272 271 270 272 276 278 280 279 280 281 281 279 277 276 278 280 283 285 288 286 285 287 290 291 292 292 293 295 296 296 296 295 295 293 291 289 287
251 255 257 255 253 254 253 255 258 262 265 268 273 275 273 274 275 277 278 276 278 281 282 281 278 277 280 282 284 285 287 288 288 290 290 289 289 290 291 291 293 296 297 297 296 296 295 291 288
253 256 258 257 256 259 255 256 259 262 265 268 271 274 274 275 276 277 277 276 278 280 280 282 282 281 282 284 285 285 286 287 289 290 290 291 290 289 290 290 293 297 299 299 301 300 297 293 290
254 256 255 256 259 259 258 259 261 263 264 267 270 272 273 273 275 276 277 278 278 280 280 281 283 283 282 282 283 285 286 289 290 290 290 292 292 292 293 292 293 297 300 300 299 298 297 295 292
252 253 253 253 257 259 261 261 262 263 263 264 268 270 272 274 274 276 277 277 278 280 280 280 283 283 282 282 283 285 287 291 292 291 288 290 291 292 294 296 295 297 297 297 296 296 297 296 294
251 254 253 254 255 258 260 262 263 261 264 265 268 271 273 271 271 273 276 277 276 278 280 281 283 284 282 281 284 287 289 290 288 288 287 289 291 293 294 296 297 297 295 294 295 296 295 296 295
248 253 253 252 252 253 258 264 263 261 263 264 267 270 271 270 271 274 276 277 276 277 279 281 282 282 282 282 284 286 287 288 288 287 287 288 290 293 295 297 298 296 295 295 294 295 294 293 293
250 251 251 250 253 252 254 261 263 263 263 263 265 267 269 270 272 274 275 277 277 277 279 281 281 281 282 282 284 286 287 287 288 288 288 289 290 292 295 297 297 296 295 294 295 294 293 292 291
250 250 252 252 254 252 253 260 262 262 265 265 264 265 268 268 271 274 273 273 274 276 279 281 281 281 280 282 283 285 287 287 287 287 288 289 290 293 295 297 297 296 294 294 295 294 293 292 291
248 247 251 249 252 255 258 261 263 264 266 266 266 266 268 268 270 270 271 272 273 274 276 278 279 279 280 282 283 285 286 287 287 286 286 289 291 293 295 296 297 296 294 294 294 295 295 294 293
244 243 248 252 254 257 257 260 266 267 267 267 266 266 267 267 269 269 271 273 274 274 275 276 277 278 279 281 283 285 286 287 287 285 285 287 290 293 295 296 296 295 293 293 293 295 295 294 293
247 243 247 248 252 251 256 262 262 265 266 265 265 266 267 267 268 270 272 274 275 275 275 275 275 276 278 280 282 284 287 288 287 284 284 287 290 292 294 295 294 295 294 294 292 292 293 293 292
251 246 241 242 246 250 249 254 259 260 264 266 266 268 268 269 271 271 271 273 274 274 274 275 275 275 276 279 282 283 285 287 288 286 284 286 288 291 292 294 295 296 295 295 294 291 291 292 291
254 251 249 247 246 254 255 254 260 263 265 266 267 269 270 271 271 271 272 273 273 273 273 274 275 276 277 279 282 284 285 287 289 290 287 286 287 291 293 295 295 296 295 296 294 291 289 289 290
258 258 253 248 247 250 256 258 262 265 267 268 268 269 271 271 271 271 271 272 273 273 272 273 275 276 277 279 281 284 284 285 287 289 289 288 289 290 291 293 293 294 295 295 293 291 289 289 290
Height
5854 5855 5856 5858 5859 5859 5858 5859 5859 5860 5860 5860 5861 5861 5861 5862 5863 5865 5863 5861 5860 5857 5854 5856 5859 5862 5863 5864 5864 5865 5865 5865 5866 5866 5866 5867 5867 5867 5867 5867 5867 5867 5867 5867 5868 5868 5867 5867 5867
5854 5855 5856 5857 5858 5858 5858 5858 5859 5860 5860 5860 5860 5861 5861 5861 5862 5862 5862 5861 5859 5856 5853 5855 5858 5861 5862 5863 5863 5863 5864 5864 5865 5865 5866 5866 5866 5866 5866 5866 5866 5866 5867 5867 5867 5867 5867 5867 5867
5853 5854 5856 5856 5856 5857 5858 5858 5858 5859 5859 5860 5861 5861 5861 5862 5862 5862 5862 5861 5860 5858 5857 5858 5860 5861 5861 5861 5860 5861 5862 5863 5864 5864 5865 5865 5865 5866 5866 5866 5866 5866 5866 5866 5866 5866 5865 5866 5866
5853 5854 5855 5856 5855 5856 5857 5857 5858 5858 5859 5860 5861 5861 5861 5861 5862 5862 5862 5861 5861 5860 5860 5860 5860 5860 5859 5857 5855 5856 5860 5861 5863 5863 5864 5864 5864 5865 5865 5865 5865 5865 5865 5865 5865 5865 5864 5864 5864
5852 5853 5854 5854 5855 5856 5856 5857 5857 5858 5859 5859 5860 5860 5861 5861 5862 5862 5862 5861 5861 5861 5861 5861 5860 5860 5858 5854 5851 5853 5857 5860 5861 5862 5863 5863 5863 5864 5864 5864 5863 5864 5864 5864 5864 5863 5863 5863 5863
5851 5852 5853 5853 5854 5855 5855 5856 5857 5858 5858 5859 5860 5860 5860 5861 5861 5861 5861 5861 5861 5861 5861 5860 5860 5859 5858 5855 5853 5854 5857 5860 5861 5861 5862 5862 5862 5862 5862 5862 5862 5862 5862 5862 5862 5862 5862 5862 5862
5851 5852 5852 5853 5853 5854 5855 5856 5856 5857 5858 5859 5859 5860 5860 5860 5860 5860 5860 5860 5860 5860 5860 5860 5860 5859 5859 5857 5857 5857 5859 5860 5860 5860 5861 5861 5861 5861 5861 5861 5861 5861 5861 5861 5861 5860 5860 5860 5860
5850 5851 5851 5852 5853 5854 5854 5855 5856 5857 5858 5858 5859 5859 5859 5860 5860 5860 5860 5860 5859 5859 5860 5860 5859 5859 5859 5858 5858 5858 5859 5859 5859 5860 5860 5860 5860 5860 5859 5859 5859 5859 5859 5859 5859 5859 5858 5858 5858
5849 5851 5850 5851 5852 5853 5854 5854 5855 5856 5857 5857 5858 5858 5859 5859 5859 5859 5859 5859 5859 5859 5859 5859 5859 5858 5858 5858 5858 5858 5858 5858 5859 5859 5859 5858 5858 5858 5858 5858 5857 5857 5857 5857 5857 5856 5856 5856 5856
5848 5849 5849 5850 5851 5852 5853 5854 5854 5855 5856 5856 5857 5857 5857 5858 5858 5858 5858 5858 5858 5858 5858 5858 5858 5858 5857 5858 5857 5857 5857 5857 5857 5857 5857 5857 5857 5856 5856 5856 5856 5855 5855 5855 5855 5854 5854 5854 5854
5846 5847 5848 5848 5850 5851 5852 5853 5853 5854 5855 5855 5856 5856 5856 5857 5857 5857 5857 5857 5857 5857 5857 5857 5857 5857 5857 5856 5856 5856 5856 5856 5856 5856 5855 5855 5855 5855 5854 5854 5854 5853 5853 5853 5852 5852 5852 5852 5852
5845 5846 5846 5847 5848 5849 5850 5852 5852 5853 5854 5854 5854 5855 5855 5855 5856 5856 5856 5856 5856 5856 5855 5855 5855 5855 5855 5855 5855 5855 5855 5854 5854 5854 5853 5853 5853 5853 5853 5852 5852 5852 5851 5851 5850 5850 5850 5850 5849
5843 5844 5845 5846 5847 5848 5849 5850 5850 5851 5852 5852 5853 5853 5853 5854 5854 5854 5854 5854 5854 5854 5854 5854 5854 5854 5854 5853 5853 5853 5853 5853 5852 5852 5851 5851 5851 5851 5850 5850 5850 5849 5849 5848 5848 5848 5847 5847 5847
5841 5842 5843 5844 5845 5846 5847 5848 5849 5850 5850 5850 5851 5852 5852 5852 5853 5853 5853 5853 5853 5853 5853 5853 5853 5852 5852 5852 5852 5851 5851 5851 5850 5850 5850 5849 5849 5848 5848 5848 5847 5847 5846 5846 5845 5845 5845 5844 5844
5839 5840 5841 5842 5843 5845 5846 5847 5847 5848 5848 5849 5850 5850 5850 5851 5851 5851 5851 5851 5851 5851 5851 5851 5851 5851 5850 5850 5850 5850 5849 5849 5849 5848 5848 5847 5847 5846 5846 5846 5845 5844 5844 5843 5842 5842 5842 5841 5841
5836 5838 5839 5841 5841 5842 5845 5845 5845 5845 5846 5847 5848 5848 5849 5849 5849 5849 5849 5849 5849 5849 5849 5849 5849 5849 5849 5848 5848 5848 5847 5847 5847 5846 5846 5845 5845 5844 5844 5843 5842 5842 5841 5840 5840 5839 5839 5838 5838
5834 5836 5837 5838 5839 5840 5841 5842 5843 5843 5844 5845 5846 5846 5847 5847 5847 5847 5847 5847 5847 5847 5847 5847 5847 5847 5847 5846 5846 5846 5845 5845 5845 5844 5844 5843 5842 5842 5841 5841 5840 5839 5838 5837 5836 5836 5835 5834 5833
5832 5833 5834 5835 5836 5837 5838 5839 5840 5841 5842 5843 5843 5844 5845 5845 5845 5845 5845 5845 5845 5845 5845 5845 5845 5845 5845 5844 5844 5844 5843 5843 5842 5842 5841 5841 5840 5839 5838 5838 5837 5836 5835 5834 5833 5832 5831 5830 5829
5829 5830 5832 5833 5833 5834 5835 5836 5837 5838 5839 5840 5841 5841 5842 5843 5843 5843 5843 5843 5843 5843 5843 5843 5843 5842 5842 5842 5842 5841 5841 5840 5840 5839 5838 5838 5837 5836 5836 5835 5834 5833 5832 5830 5829 5828 5827 5826 5825
5826 5827 5829 5830 5830 5832 5832 5833 5834 5835 5836 5837 5838 5839 5839 5840 5840 5841 5841 5841 5841 5841 5841 5841 5840 5840 5840 5840 5839 5839 5838 5838 5837 5836 5836 5835 5834 5833 5833 5831 5831 5829 5828 5827 5826 5825 5823 5822 5821
5823 5824 5826 5827 5827 5828 5829 5831 5831 5832 5833 5834 5835 5836 5836 5837 5838 5838 5838 5838 5838 5838 5838 5838 5838 5837 5837 5837 5836 5836 5835 5834 5834 5833 5832 5832 5831 5830 5829 5828 5827 5826 5825 5823 5822 5821 5820 5819 5818
5819 5820 5822 5823 5824 5825 5826 5827 5828 5829 5830 5831 5832 5833 5833 5834 5834 5835 5835 5835 5835 5835 5835 5835 5835 5834 5834 5834 5833 5833 5832 5831 5830 5830 5829 5828 5828 5826 5825 5824 5823 5822 5821 5820 5818 5817 5816 5815 5814
5816 5817 5818 5819 5820 5821 5823 5823 5825 5825 5826 5828 5829 5830 5830 5831 5831 5832 5832 5832 5832 5832 5832 5832 5831 5831 5831 5830 5830 5829 5828 5828 5827 5826 5825 5825 5824 5823 5821 5820 5819 5818 5817 5816 5814 5813 5812 5811 5810
5812 5813 5814 5815 5816 5818 5820 5820 5822 5822 5823 5824 5826 5826 5827 5828 5828 5828 5829 5829 5829 5829 5829 5828 5828 5828 5826 5826 5826 5826 5825 5824 5823 5822 5821 5821 5820 5819 5818 5816 5815 5814 5813 5812 5810 5809 5808 5807 5805
5808 5810 5811 5811 5812 5814 5816 5817 5818 5819 5819 5820 5822 5823 5823 5824 5824 5825 5824 5825 5825 5825 5825 5825 5824 5824 5823 5823 5822 5822 5821 5820 5819 5818 5818 5817 5816 5815 5813 5812 5811 5809 5808 5807 5806 5805 5803 5802 5801
5804 5806 5808 5809 5810 5811 5812 5812 5815 5815 5815 5816 5817 5819 5819 5820 5820 5821 5821 5821 5821 5821 5821 5821 5820 5820 5820 5819 5819 5818 5817 5816 5815 5814 5813 5813 5812 5810 5809 5808 5806 5805 5804 5803 5801 5800 5799 5797 5796
5801 5802 5804 5805 5806 5808 5808 5809 5810 5811 5811 5812 5813 5814 5815 5815 5816 5816 5816 5817 5817 5817 5816 5816 5816 5816 5815 5815 5814 5814 5813 5812 5811 5810 5809 5808 5807 5806 5804 5803 5802 5800 5799 5798 5796 5795 5794 5792 5791
5797 5798 5800 5801 5802 5804 5805 5806 5806 5806 5808 5808 5809 5810 5810 5811 5811 5812 5812 5812 5812 5812 5811 5811 5811 5811 5811 5810 5810 5809 5808 5807 5806 5805 5804 5803 5802 5801 5799 5798 5797 5795 5794 5793 5791 5790 5788 5787 5786
5794 5795 5795 5797 5798 5800 5801 5803 5802 5803 5804 5804 5804 5805 5806 5806 5807 5807 5807 5807 5807 5806 5806 5806 5806 5806 5806 5806 5805 5804 5803 5802 5801 5800 5799 5798 5797 5796 5794 5793 5792 5790 5789 5787 5785 5784 5783 5782 5780
5791 5792 5792 5794 5795 5795 5796 5800 5798 5798 5799 5799 5800 5800 5800 5801 5801 5801 5801 5801 5801 5801 5801 5801 5801 5801 5801 5800 5800 5799 5798 5797 5796 5795 5794 5793 5792 5791 5789 5788 5786 5785 5783 5781 5780 5778 5777 5776 5774